Year,Month,Day,Hour,Minute,Value (Times are PST for temperature in C)
2015,05,04,00,00,10.70
2015,05,04,00,01,10.70
2015,05,04,00,02,10.60
2015,05,04,00,03,10.50
2015,05,04,00,04,10.50
2015,05,04,00,05,10.40
2015,05,04,00,06,10.30
2015,05,04,00,07,10.40
2015,05,04,00,08,10.50
2015,05,04,00,09,10.50
2015,05,04,00,10,10.60
2015,05,04,00,11,10.70
2015,05,04,00,12,10.70
2015,05,04,00,13,10.70
2015,05,04,00,14,10.70
2015,05,04,00,15,10.80
2015,05,04,00,16,10.90
2015,05,04,00,17,10.90
2015,05,04,00,18,10.90
2015,05,04,00,19,10.90
2015,05,04,00,20,10.90
2015,05,04,00,21,10.90
2015,05,04,00,22,10.90
2015,05,04,00,23,10.90
2015,05,04,00,24,10.90
2015,05,04,00,25,10.90
2015,05,04,00,26,10.90
2015,05,04,00,27,10.90
2015,05,04,00,28,10.90
2015,05,04,00,29,10.90
2015,05,04,00,30,10.90
2015,05,04,00,31,10.90
2015,05,04,00,32,10.90
2015,05,04,00,33,10.90
2015,05,04,00,34,10.80
2015,05,04,00,35,10.80
2015,05,04,00,36,10.80
2015,05,04,00,37,10.80
2015,05,04,00,38,10.80
2015,05,04,00,39,10.70
2015,05,04,00,40,10.70
2015,05,04,00,41,10.70
2015,05,04,00,42,10.70
2015,05,04,00,43,10.70
2015,05,04,00,44,10.70
2015,05,04,00,45,10.70
2015,05,04,00,46,10.70
2015,05,04,00,47,10.70
2015,05,04,00,48,10.70
2015,05,04,00,49,10.70
2015,05,04,00,50,10.70
2015,05,04,00,51,10.80
2015,05,04,00,52,10.80
2015,05,04,00,53,10.80
2015,05,04,00,54,10.80
2015,05,04,00,55,10.80
2015,05,04,00,56,10.80
2015,05,04,00,57,10.80
2015,05,04,00,58,10.70
2015,05,04,00,59,10.70
2015,05,04,01,00,10.60
2015,05,04,01,01,10.60
2015,05,04,01,02,10.50
2015,05,04,01,03,10.50
2015,05,04,01,04,10.40
2015,05,04,01,05,10.40
2015,05,04,01,06,10.30
2015,05,04,01,07,10.20
2015,05,04,01,08,10.20
2015,05,04,01,09,10.10
2015,05,04,01,10,10.10
2015,05,04,01,11,10.00
2015,05,04,01,12,9.90
2015,05,04,01,13,9.80
2015,05,04,01,14,9.80
2015,05,04,01,15,9.70
2015,05,04,01,16,9.60
2015,05,04,01,17,9.60
2015,05,04,01,18,9.50
2015,05,04,01,19,9.50
2015,05,04,01,20,9.50
2015,05,04,01,21,9.50
2015,05,04,01,22,9.60
2015,05,04,01,23,9.60
2015,05,04,01,24,9.60
2015,05,04,01,25,9.70
2015,05,04,01,26,9.70
2015,05,04,01,27,9.70
2015,05,04,01,28,9.70
2015,05,04,01,29,9.70
2015,05,04,01,30,9.70
2015,05,04,01,31,9.60
2015,05,04,01,32,9.60
2015,05,04,01,33,9.70
2015,05,04,01,34,9.70
2015,05,04,01,35,9.70
2015,05,04,01,36,9.70
2015,05,04,01,37,9.70
2015,05,04,01,38,9.70
2015,05,04,01,39,9.60
2015,05,04,01,40,9.60
2015,05,04,01,41,9.60
2015,05,04,01,42,9.50
2015,05,04,01,43,9.40
2015,05,04,01,44,9.40
2015,05,04,01,45,9.40
2015,05,04,01,46,9.40
2015,05,04,01,47,9.40
2015,05,04,01,48,9.50
2015,05,04,01,49,9.50
2015,05,04,01,50,9.50
2015,05,04,01,51,9.50
2015,05,04,01,52,9.60
2015,05,04,01,53,9.60
2015,05,04,01,54,9.60
2015,05,04,01,55,9.70
2015,05,04,01,56,9.70
2015,05,04,01,57,9.70
2015,05,04,01,58,9.60
2015,05,04,01,59,9.60
2015,05,04,02,00,9.60
2015,05,04,02,01,9.60
2015,05,04,02,02,9.60
2015,05,04,02,03,9.60
2015,05,04,02,04,9.50
2015,05,04,02,05,9.50
2015,05,04,02,06,9.50
2015,05,04,02,07,9.40
2015,05,04,02,08,9.40
2015,05,04,02,09,9.40
2015,05,04,02,10,9.30
2015,05,04,02,11,9.30
2015,05,04,02,12,9.30
2015,05,04,02,13,9.30
2015,05,04,02,14,9.20
2015,05,04,02,15,9.20
2015,05,04,02,16,9.20
2015,05,04,02,17,9.20
2015,05,04,02,18,9.20
2015,05,04,02,19,9.30
2015,05,04,02,20,9.40
2015,05,04,02,21,9.40
2015,05,04,02,22,9.40
2015,05,04,02,23,9.50
2015,05,04,02,24,9.40
2015,05,04,02,25,9.40
2015,05,04,02,26,9.40
2015,05,04,02,27,9.40
2015,05,04,02,28,9.40
2015,05,04,02,29,9.40
2015,05,04,02,30,9.40
2015,05,04,02,31,9.40
2015,05,04,02,32,9.40
2015,05,04,02,33,9.40
2015,05,04,02,34,9.40
2015,05,04,02,35,9.40
2015,05,04,02,36,9.40
2015,05,04,02,37,9.40
2015,05,04,02,38,9.30
2015,05,04,02,39,9.30
2015,05,04,02,40,9.20
2015,05,04,02,41,9.20
2015,05,04,02,42,9.10
2015,05,04,02,43,9.10
2015,05,04,02,44,9.00
2015,05,04,02,45,8.90
2015,05,04,02,46,8.80
2015,05,04,02,47,8.80
2015,05,04,02,48,8.70
2015,05,04,02,49,8.60
2015,05,04,02,50,8.60
2015,05,04,02,51,8.50
2015,05,04,02,52,8.50
2015,05,04,02,53,8.40
2015,05,04,02,54,8.40
2015,05,04,02,55,8.40
2015,05,04,02,56,8.30
2015,05,04,02,57,8.30
2015,05,04,02,58,8.30
2015,05,04,02,59,8.30
2015,05,04,03,00,8.30
2015,05,04,03,01,8.30
2015,05,04,03,02,8.30
2015,05,04,03,06,8.30
2015,05,04,03,07,8.30
2015,05,04,03,08,8.30
2015,05,04,03,09,8.40
2015,05,04,03,10,8.40
2015,05,04,03,11,8.40
2015,05,04,03,12,8.40
2015,05,04,03,13,8.40
2015,05,04,03,14,8.30
2015,05,04,03,15,8.30
2015,05,04,03,16,8.30
2015,05,04,03,17,8.20
2015,05,04,03,18,8.20
2015,05,04,03,19,8.20
2015,05,04,03,20,8.20
2015,05,04,03,21,8.10
2015,05,04,03,22,8.10
2015,05,04,03,23,8.10
2015,05,04,03,24,8.10
2015,05,04,03,25,8.10
2015,05,04,03,26,8.10
2015,05,04,03,27,8.10
2015,05,04,03,28,8.10
2015,05,04,03,29,8.10
2015,05,04,03,30,8.10
2015,05,04,03,31,8.10
2015,05,04,03,32,8.10
2015,05,04,03,33,8.10
2015,05,04,03,34,8.10
2015,05,04,03,35,8.10
2015,05,04,03,36,8.10
2015,05,04,03,37,8.10
2015,05,04,03,38,8.10
2015,05,04,03,39,8.10
2015,05,04,03,40,8.10
2015,05,04,03,41,8.10
2015,05,04,03,42,8.10
2015,05,04,03,43,8.00
2015,05,04,03,44,8.00
2015,05,04,03,45,7.90
2015,05,04,03,46,7.90
2015,05,04,03,47,7.90
2015,05,04,03,48,7.90
2015,05,04,03,49,7.90
2015,05,04,03,50,7.90
2015,05,04,03,51,7.90
2015,05,04,03,52,7.90
2015,05,04,03,53,7.90
2015,05,04,03,54,8.00
2015,05,04,03,55,8.20
2015,05,04,03,56,8.30
2015,05,04,03,57,8.40
2015,05,04,03,58,8.50
2015,05,04,03,59,8.70
2015,05,04,04,00,8.70
2015,05,04,04,01,8.80
2015,05,04,04,02,8.80
2015,05,04,04,03,8.80
2015,05,04,04,04,8.80
2015,05,04,04,05,8.80
2015,05,04,04,06,8.80
2015,05,04,04,07,8.80
2015,05,04,04,08,8.80
2015,05,04,04,09,8.70
2015,05,04,04,10,8.70
2015,05,04,04,11,8.70
2015,05,04,04,12,8.70
2015,05,04,04,13,8.70
2015,05,04,04,14,8.70
2015,05,04,04,15,8.70
2015,05,04,04,16,8.70
2015,05,04,04,17,8.70
2015,05,04,04,18,8.70
2015,05,04,04,19,8.60
2015,05,04,04,20,8.60
2015,05,04,04,21,8.60
2015,05,04,04,22,8.60
2015,05,04,04,23,8.60
2015,05,04,04,24,8.60
2015,05,04,04,25,8.60
2015,05,04,04,26,8.70
2015,05,04,04,27,8.70
2015,05,04,04,28,8.70
2015,05,04,04,29,8.70
2015,05,04,04,30,8.70
2015,05,04,04,31,8.70
2015,05,04,04,32,8.70
2015,05,04,04,33,8.70
2015,05,04,04,34,8.70
2015,05,04,04,35,8.70
2015,05,04,04,36,8.70
2015,05,04,04,37,8.70
2015,05,04,04,38,8.70
2015,05,04,04,39,8.70
2015,05,04,04,40,8.70
2015,05,04,04,41,8.70
2015,05,04,04,42,8.70
2015,05,04,04,43,8.60
2015,05,04,04,44,8.60
2015,05,04,04,45,8.60
2015,05,04,04,46,8.60
2015,05,04,04,47,8.60
2015,05,04,04,48,8.60
2015,05,04,04,49,8.60
2015,05,04,04,50,8.60
2015,05,04,04,51,8.60
2015,05,04,04,52,8.60
2015,05,04,04,53,8.60
2015,05,04,04,54,8.60
2015,05,04,04,55,8.60
2015,05,04,04,56,8.70
2015,05,04,04,57,8.70
2015,05,04,04,58,8.70
2015,05,04,04,59,8.70
2015,05,04,05,00,8.70
2015,05,04,05,01,8.60
2015,05,04,05,02,8.60
2015,05,04,05,03,8.60
2015,05,04,05,04,8.60
2015,05,04,05,05,8.60
2015,05,04,05,06,8.50
2015,05,04,05,07,8.50
2015,05,04,05,08,8.50
2015,05,04,05,09,8.50
2015,05,04,05,10,8.40
2015,05,04,05,11,8.50
2015,05,04,05,12,8.50
2015,05,04,05,13,8.50
2015,05,04,05,14,8.50
2015,05,04,05,15,8.50
2015,05,04,05,16,8.50
2015,05,04,05,17,8.50
2015,05,04,05,18,8.50
2015,05,04,05,19,8.50
2015,05,04,05,20,8.50
2015,05,04,05,21,8.40
2015,05,04,05,22,8.40
2015,05,04,05,23,8.40
2015,05,04,05,24,8.40
2015,05,04,05,25,8.40
2015,05,04,05,26,8.40
2015,05,04,05,27,8.40
2015,05,04,05,28,8.40
2015,05,04,05,29,8.40
2015,05,04,05,30,8.40
2015,05,04,05,31,8.40
2015,05,04,05,32,8.40
2015,05,04,05,33,8.40
2015,05,04,05,34,8.40
2015,05,04,05,35,8.40
2015,05,04,05,36,8.40
2015,05,04,05,37,8.40
2015,05,04,05,38,8.40
2015,05,04,05,39,8.40
2015,05,04,05,40,8.40
2015,05,04,05,41,8.40
2015,05,04,05,42,8.40
2015,05,04,05,43,8.40
2015,05,04,05,44,8.40
2015,05,04,05,45,8.40
2015,05,04,05,46,8.40
2015,05,04,05,47,8.40
2015,05,04,05,48,8.40
2015,05,04,05,49,8.40
2015,05,04,05,50,8.40
2015,05,04,05,51,8.40
2015,05,04,05,52,8.40
2015,05,04,05,53,8.40
2015,05,04,05,54,8.40
2015,05,04,05,55,8.40
2015,05,04,05,56,8.40
2015,05,04,05,57,8.40
2015,05,04,05,58,8.40
2015,05,04,05,59,8.40
2015,05,04,06,00,8.40
2015,05,04,06,01,8.40
2015,05,04,06,02,8.40
2015,05,04,06,03,8.40
2015,05,04,06,04,8.40
2015,05,04,06,05,8.40
2015,05,04,06,06,8.40
2015,05,04,06,07,8.40
2015,05,04,06,08,8.40
2015,05,04,06,09,8.40
2015,05,04,06,10,8.40
2015,05,04,06,11,8.40
2015,05,04,06,12,8.40
2015,05,04,06,13,8.40
2015,05,04,06,14,8.40
2015,05,04,06,15,8.40
2015,05,04,06,16,8.40
2015,05,04,06,17,8.40
2015,05,04,06,18,8.50
2015,05,04,06,19,8.50
2015,05,04,06,20,8.50
2015,05,04,06,21,8.50
2015,05,04,06,22,8.50
2015,05,04,06,23,8.50
2015,05,04,06,24,8.50
2015,05,04,06,25,8.50
2015,05,04,06,26,8.50
2015,05,04,06,27,8.60
2015,05,04,06,28,8.60
2015,05,04,06,29,8.60
2015,05,04,06,30,8.60
2015,05,04,06,31,8.60
2015,05,04,06,32,8.60
2015,05,04,06,33,8.60
2015,05,04,06,34,8.60
2015,05,04,06,35,8.60
2015,05,04,06,36,8.70
2015,05,04,06,37,8.70
2015,05,04,06,38,8.70
2015,05,04,06,39,8.70
2015,05,04,06,40,8.70
2015,05,04,06,41,8.80
2015,05,04,06,42,8.80
2015,05,04,06,43,8.80
2015,05,04,06,44,8.80
2015,05,04,06,45,8.80
2015,05,04,06,46,8.80
2015,05,04,06,47,8.90
2015,05,04,06,48,8.90
2015,05,04,06,49,8.90
2015,05,04,06,50,9.00
2015,05,04,06,51,9.00
2015,05,04,06,52,9.10
2015,05,04,06,53,9.10
2015,05,04,06,54,9.10
2015,05,04,06,55,9.10
2015,05,04,06,56,9.20
2015,05,04,06,57,9.20
2015,05,04,06,58,9.20
2015,05,04,06,59,9.20
2015,05,04,07,00,9.20
2015,05,04,07,01,9.20
2015,05,04,07,02,9.30
2015,05,04,07,03,9.30
2015,05,04,07,04,9.30
2015,05,04,07,05,9.30
2015,05,04,07,06,9.30
2015,05,04,07,07,9.30
2015,05,04,07,08,9.40
2015,05,04,07,09,9.40
2015,05,04,07,10,9.40
2015,05,04,07,11,9.50
2015,05,04,07,12,9.50
2015,05,04,07,13,9.50
2015,05,04,07,14,9.50
2015,05,04,07,15,9.60
2015,05,04,07,16,9.60
2015,05,04,07,17,9.60
2015,05,04,07,18,9.60
2015,05,04,07,19,9.60
2015,05,04,07,20,9.60
2015,05,04,07,21,9.60
2015,05,04,07,22,9.70
2015,05,04,07,23,9.70
2015,05,04,07,24,9.70
2015,05,04,07,25,9.80
2015,05,04,07,26,9.80
2015,05,04,07,27,9.80
2015,05,04,07,28,9.80
2015,05,04,07,29,9.80
2015,05,04,07,30,9.80
2015,05,04,07,31,9.80
2015,05,04,07,32,9.90
2015,05,04,07,33,9.90
2015,05,04,07,34,9.90
2015,05,04,07,35,9.90
2015,05,04,07,36,9.90
2015,05,04,07,37,9.90
2015,05,04,07,38,10.00
2015,05,04,07,39,10.00
2015,05,04,07,40,10.00
2015,05,04,07,41,10.00
2015,05,04,07,42,10.10
2015,05,04,07,43,10.10
2015,05,04,07,44,10.10
2015,05,04,07,45,10.10
2015,05,04,07,46,10.20
2015,05,04,07,47,10.20
2015,05,04,07,48,10.20
2015,05,04,07,49,10.30
2015,05,04,07,50,10.30
2015,05,04,07,51,10.30
2015,05,04,07,52,10.40
2015,05,04,07,53,10.40
2015,05,04,07,54,10.40
2015,05,04,07,55,10.40
2015,05,04,07,56,10.50
2015,05,04,07,57,10.50
2015,05,04,07,58,10.60
2015,05,04,07,59,10.60
2015,05,04,08,00,10.60
2015,05,04,08,01,10.60
2015,05,04,08,02,10.60
2015,05,04,08,03,10.60
2015,05,04,08,04,10.60
2015,05,04,08,05,10.60
2015,05,04,08,06,10.60
2015,05,04,08,07,10.70
2015,05,04,08,08,10.70
2015,05,04,08,09,10.80
2015,05,04,08,10,10.80
2015,05,04,08,11,10.80
2015,05,04,08,12,10.80
2015,05,04,08,13,10.90
2015,05,04,08,14,10.90
2015,05,04,08,15,10.90
2015,05,04,08,16,11.00
2015,05,04,08,17,11.00
2015,05,04,08,18,11.00
2015,05,04,08,19,11.10
2015,05,04,08,20,11.10
2015,05,04,08,21,11.10
2015,05,04,08,22,11.10
2015,05,04,08,23,11.10
2015,05,04,08,24,11.20
2015,05,04,08,25,11.20
2015,05,04,08,26,11.20
2015,05,04,08,27,11.20
2015,05,04,08,28,11.30
2015,05,04,08,29,11.30
2015,05,04,08,30,11.40
2015,05,04,08,31,11.40
2015,05,04,08,32,11.40
2015,05,04,08,33,11.40
2015,05,04,08,34,11.40
2015,05,04,08,35,11.40
2015,05,04,08,36,11.40
2015,05,04,08,37,11.40
2015,05,04,08,38,11.40
2015,05,04,08,39,11.40
2015,05,04,08,40,11.50
2015,05,04,08,41,11.50
2015,05,04,08,42,11.50
2015,05,04,08,43,11.50
2015,05,04,08,44,11.50
2015,05,04,08,45,11.60
2015,05,04,08,46,11.60
2015,05,04,08,47,11.60
2015,05,04,08,48,11.60
2015,05,04,08,49,11.70
2015,05,04,08,50,11.70
2015,05,04,08,51,11.70
2015,05,04,08,52,11.70
2015,05,04,08,53,11.70
2015,05,04,08,54,11.70
2015,05,04,08,55,11.70
2015,05,04,08,56,11.70
2015,05,04,08,57,11.70
2015,05,04,08,58,11.70
2015,05,04,08,59,11.70
2015,05,04,09,00,11.70
2015,05,04,09,01,11.70
2015,05,04,09,02,11.70
2015,05,04,09,03,11.80
2015,05,04,09,04,11.80
2015,05,04,09,05,11.80
2015,05,04,09,06,11.90
2015,05,04,09,07,11.90
2015,05,04,09,08,11.90
2015,05,04,09,09,11.90
2015,05,04,09,10,11.90
2015,05,04,09,11,12.00
2015,05,04,09,12,12.00
2015,05,04,09,13,12.10
2015,05,04,09,14,12.10
2015,05,04,09,15,12.10
2015,05,04,09,16,12.10
2015,05,04,09,17,12.10
2015,05,04,09,18,12.10
2015,05,04,09,19,12.10
2015,05,04,09,20,12.20
2015,05,04,09,21,12.20
2015,05,04,09,22,12.20
2015,05,04,09,23,12.30
2015,05,04,09,24,12.30
2015,05,04,09,25,12.30
2015,05,04,09,26,12.30
2015,05,04,09,27,12.30
2015,05,04,09,28,12.30
2015,05,04,09,29,12.30
2015,05,04,09,30,12.30
2015,05,04,09,31,12.30
2015,05,04,09,32,12.30
2015,05,04,09,33,12.40
2015,05,04,09,34,12.40
2015,05,04,09,35,12.30
2015,05,04,09,36,12.30
2015,05,04,09,37,12.30
2015,05,04,09,38,12.30
2015,05,04,09,39,12.20
2015,05,04,09,40,12.20
2015,05,04,09,41,12.20
2015,05,04,09,42,12.10
2015,05,04,09,43,12.10
2015,05,04,09,44,12.10
2015,05,04,09,45,12.10
2015,05,04,09,46,12.10
2015,05,04,09,47,12.20
2015,05,04,09,48,12.20
2015,05,04,09,49,12.20
2015,05,04,09,50,12.30
2015,05,04,09,51,12.30
2015,05,04,09,52,12.30
2015,05,04,09,53,12.30
2015,05,04,09,54,12.20
2015,05,04,09,55,12.20
2015,05,04,09,56,12.30
2015,05,04,09,57,12.30
2015,05,04,09,58,12.30
2015,05,04,09,59,12.20
2015,05,04,10,00,12.10
2015,05,04,10,01,11.90
2015,05,04,10,02,11.80
2015,05,04,10,03,11.70
2015,05,04,10,04,11.70
2015,05,04,10,05,11.70
2015,05,04,10,06,11.70
2015,05,04,10,07,11.70
2015,05,04,10,08,11.80
2015,05,04,10,09,11.80
2015,05,04,10,10,11.70
2015,05,04,10,11,11.60
2015,05,04,10,12,11.60
2015,05,04,10,13,11.70
2015,05,04,10,14,11.80
2015,05,04,10,15,11.80
2015,05,04,10,16,11.80
2015,05,04,10,17,11.80
2015,05,04,10,18,11.80
2015,05,04,10,19,11.80
2015,05,04,10,20,11.90
2015,05,04,10,21,11.90
2015,05,04,10,22,11.90
2015,05,04,10,23,11.90
2015,05,04,10,24,11.90
2015,05,04,10,25,11.90
2015,05,04,10,26,11.90
2015,05,04,10,27,11.90
2015,05,04,10,28,11.90
2015,05,04,10,29,11.90
2015,05,04,10,30,11.90
2015,05,04,10,31,11.90
2015,05,04,10,32,11.90
2015,05,04,10,33,11.90
2015,05,04,10,34,11.90
2015,05,04,10,35,12.00
2015,05,04,10,36,12.10
2015,05,04,10,37,12.20
2015,05,04,10,38,12.30
2015,05,04,10,39,12.40
2015,05,04,10,40,12.50
2015,05,04,10,41,12.60
2015,05,04,10,42,12.70
2015,05,04,10,43,12.70
2015,05,04,10,44,12.70
2015,05,04,10,45,12.70
2015,05,04,10,46,12.70
2015,05,04,10,47,12.70
2015,05,04,10,48,12.80
2015,05,04,10,49,12.80
2015,05,04,10,50,12.90
2015,05,04,10,51,13.00
2015,05,04,10,52,13.00
2015,05,04,10,53,13.10
2015,05,04,10,54,13.00
2015,05,04,10,55,12.90
2015,05,04,10,56,12.80
2015,05,04,10,57,12.80
2015,05,04,10,58,12.70
2015,05,04,10,59,12.70
2015,05,04,11,00,12.70
2015,05,04,11,01,12.60
2015,05,04,11,02,12.60
2015,05,04,11,03,12.70
2015,05,04,11,04,12.60
2015,05,04,11,05,12.50
2015,05,04,11,06,12.40
2015,05,04,11,07,12.30
2015,05,04,11,08,12.40
2015,05,04,11,09,12.30
2015,05,04,11,10,12.40
2015,05,04,11,11,12.40
2015,05,04,11,12,12.30
2015,05,04,11,13,12.40
2015,05,04,11,14,12.40
2015,05,04,11,15,12.40
2015,05,04,11,16,12.40
2015,05,04,11,17,12.40
2015,05,04,11,18,12.40
2015,05,04,11,19,12.30
2015,05,04,11,20,12.30
2015,05,04,11,21,12.30
2015,05,04,11,22,12.30
2015,05,04,11,23,12.20
2015,05,04,11,24,12.20
2015,05,04,11,25,12.30
2015,05,04,11,26,12.30
2015,05,04,11,27,12.40
2015,05,04,11,28,12.50
2015,05,04,11,29,12.60
2015,05,04,11,30,12.60
2015,05,04,11,31,12.70
2015,05,04,11,32,12.80
2015,05,04,11,33,12.80
2015,05,04,11,34,12.80
2015,05,04,11,35,12.80
2015,05,04,11,36,12.80
2015,05,04,11,37,12.90
2015,05,04,11,38,12.90
2015,05,04,11,39,12.90
2015,05,04,11,40,13.00
2015,05,04,11,41,13.00
2015,05,04,11,42,13.10
2015,05,04,11,43,13.20
2015,05,04,11,44,13.20
2015,05,04,11,45,13.20
2015,05,04,11,46,13.10
2015,05,04,11,47,13.10
2015,05,04,11,48,13.10
2015,05,04,11,49,13.10
2015,05,04,11,50,13.00
2015,05,04,11,51,13.00
2015,05,04,11,52,13.00
2015,05,04,11,53,13.10
2015,05,04,11,54,13.10
2015,05,04,11,55,13.10
2015,05,04,11,56,13.20
2015,05,04,11,57,13.30
2015,05,04,11,58,13.20
2015,05,04,11,59,13.30
2015,05,04,12,00,13.20
2015,05,04,12,01,13.20
2015,05,04,12,02,13.30
2015,05,04,12,03,13.30
2015,05,04,12,04,13.40
2015,05,04,12,05,13.40
2015,05,04,12,06,13.40
2015,05,04,12,07,13.30
2015,05,04,12,08,13.30
2015,05,04,12,09,13.30
2015,05,04,12,10,13.30
2015,05,04,12,11,13.40
2015,05,04,12,12,13.40
2015,05,04,12,13,13.30
2015,05,04,12,14,13.30
2015,05,04,12,15,13.40
2015,05,04,12,16,13.50
2015,05,04,12,17,13.50
2015,05,04,12,18,13.50
2015,05,04,12,19,13.40
2015,05,04,12,20,13.40
2015,05,04,12,21,13.50
2015,05,04,12,22,13.60
2015,05,04,12,23,13.70
2015,05,04,12,24,13.70
2015,05,04,12,25,13.70
2015,05,04,12,26,13.60
2015,05,04,12,27,13.70
2015,05,04,12,28,13.70
2015,05,04,12,29,13.70
2015,05,04,12,30,13.70
2015,05,04,12,31,13.80
2015,05,04,12,32,13.80
2015,05,04,12,33,13.90
2015,05,04,12,34,13.90
2015,05,04,12,35,13.90
2015,05,04,12,36,13.70
2015,05,04,12,37,13.70
2015,05,04,12,38,13.70
2015,05,04,12,39,13.80
2015,05,04,12,40,13.80
2015,05,04,12,41,13.80
2015,05,04,12,42,13.70
2015,05,04,12,43,13.70
2015,05,04,12,44,13.70
2015,05,04,12,45,13.60
2015,05,04,12,46,13.60
2015,05,04,12,47,13.70
2015,05,04,12,48,13.70
2015,05,04,12,49,13.80
2015,05,04,12,50,13.90
2015,05,04,12,51,14.00
2015,05,04,12,52,13.90
2015,05,04,12,53,13.90
2015,05,04,12,54,13.90
2015,05,04,12,55,13.80
2015,05,04,12,56,13.80
2015,05,04,12,57,13.90
2015,05,04,12,58,14.00
2015,05,04,12,59,14.10
2015,05,04,13,00,14.20
2015,05,04,13,01,14.20
2015,05,04,13,02,14.30
2015,05,04,13,03,14.40
2015,05,04,13,04,14.50
2015,05,04,13,05,14.60
2015,05,04,13,06,14.60
2015,05,04,13,07,14.50
2015,05,04,13,08,14.40
2015,05,04,13,09,14.30
2015,05,04,13,10,14.40
2015,05,04,13,11,14.40
2015,05,04,13,12,14.50
2015,05,04,13,13,14.70
2015,05,04,13,14,14.90
2015,05,04,13,15,15.10
2015,05,04,13,16,15.10
2015,05,04,13,17,15.00
2015,05,04,13,18,14.80
2015,05,04,13,19,14.80
2015,05,04,13,20,14.80
2015,05,04,13,21,14.80
2015,05,04,13,22,14.80
2015,05,04,13,23,14.90
2015,05,04,13,24,14.80
2015,05,04,13,25,14.70
2015,05,04,13,26,14.70
2015,05,04,13,27,14.60
2015,05,04,13,28,14.70
2015,05,04,13,29,14.70
2015,05,04,13,30,14.70
2015,05,04,13,31,14.80
2015,05,04,13,32,15.00
2015,05,04,13,33,14.90
2015,05,04,13,34,14.80
2015,05,04,13,35,14.70
2015,05,04,13,36,14.70
2015,05,04,13,37,14.70
2015,05,04,13,38,14.80
2015,05,04,13,39,14.80
2015,05,04,13,40,14.80
2015,05,04,13,41,14.90
2015,05,04,13,42,15.00
2015,05,04,13,43,15.10
2015,05,04,13,44,15.20
2015,05,04,13,45,15.20
2015,05,04,13,46,15.30
2015,05,04,13,47,15.40
2015,05,04,13,48,15.40
2015,05,04,13,49,15.50
2015,05,04,13,50,15.70
2015,05,04,13,51,15.70
2015,05,04,13,52,15.60
2015,05,04,13,53,15.60
2015,05,04,13,54,15.60
2015,05,04,13,55,15.50
2015,05,04,13,56,15.40
2015,05,04,13,57,15.50
2015,05,04,13,58,15.50
2015,05,04,13,59,15.60
2015,05,04,14,00,15.50
2015,05,04,14,01,15.40
2015,05,04,14,02,15.30
2015,05,04,14,03,15.40
2015,05,04,14,04,15.40
2015,05,04,14,05,15.40
2015,05,04,14,06,15.40
2015,05,04,14,07,15.40
2015,05,04,14,08,15.50
2015,05,04,14,09,15.50
2015,05,04,14,10,15.50
2015,05,04,14,11,15.50
2015,05,04,14,12,15.50
2015,05,04,14,13,15.40
2015,05,04,14,14,15.40
2015,05,04,14,15,15.30
2015,05,04,14,16,15.20
2015,05,04,14,17,15.20
2015,05,04,14,18,15.30
2015,05,04,14,19,15.50
2015,05,04,14,20,15.70
2015,05,04,14,21,15.60
2015,05,04,14,22,15.50
2015,05,04,14,23,15.50
2015,05,04,14,24,15.50
2015,05,04,14,25,15.60
2015,05,04,14,26,15.70
2015,05,04,14,27,15.80
2015,05,04,14,28,15.90
2015,05,04,14,29,16.00
2015,05,04,14,30,16.20
2015,05,04,14,31,16.20
2015,05,04,14,32,16.10
2015,05,04,14,33,16.10
2015,05,04,14,34,16.00
2015,05,04,14,35,15.80
2015,05,04,14,36,15.70
2015,05,04,14,37,15.60
2015,05,04,14,38,15.60
2015,05,04,14,39,15.70
2015,05,04,14,40,15.70
2015,05,04,14,41,15.80
2015,05,04,14,42,16.00
2015,05,04,14,43,16.20
2015,05,04,14,44,16.20
2015,05,04,14,45,16.00
2015,05,04,14,46,16.00
2015,05,04,14,47,16.00
2015,05,04,14,48,15.90
2015,05,04,14,49,15.80
2015,05,04,14,50,15.80
2015,05,04,14,51,15.80
2015,05,04,14,52,15.70
2015,05,04,14,53,15.60
2015,05,04,14,54,15.60
2015,05,04,14,55,15.70
2015,05,04,14,56,15.80
2015,05,04,14,57,15.80
2015,05,04,14,58,15.80
2015,05,04,14,59,15.70
2015,05,04,15,00,15.60
2015,05,04,15,01,15.70
2015,05,04,15,02,15.70
2015,05,04,15,03,15.70
2015,05,04,15,04,15.70
2015,05,04,15,05,15.60
2015,05,04,15,06,15.50
2015,05,04,15,07,15.40
2015,05,04,15,08,15.30
2015,05,04,15,09,15.30
2015,05,04,15,10,15.20
2015,05,04,15,11,14.90
2015,05,04,15,12,14.60
2015,05,04,15,13,14.40
2015,05,04,15,14,14.30
2015,05,04,15,15,14.30
2015,05,04,15,16,14.30
2015,05,04,15,17,14.30
2015,05,04,15,18,14.30
2015,05,04,15,19,14.20
2015,05,04,15,20,14.20
2015,05,04,15,21,14.20
2015,05,04,15,22,14.20
2015,05,04,15,23,14.20
2015,05,04,15,24,14.10
2015,05,04,15,25,14.20
2015,05,04,15,26,14.20
2015,05,04,15,27,14.20
2015,05,04,15,28,14.30
2015,05,04,15,29,14.30
2015,05,04,15,30,14.40
2015,05,04,15,31,14.50
2015,05,04,15,32,14.50
2015,05,04,15,33,14.40
2015,05,04,15,34,14.50
2015,05,04,15,35,14.60
2015,05,04,15,36,14.60
2015,05,04,15,37,14.60
2015,05,04,15,38,14.60
2015,05,04,15,39,14.50
2015,05,04,15,40,14.30
2015,05,04,15,41,14.20
2015,05,04,15,42,14.10
2015,05,04,15,43,14.00
2015,05,04,15,44,13.90
2015,05,04,15,45,13.80
2015,05,04,15,46,13.70
2015,05,04,15,47,13.50
2015,05,04,15,48,13.50
2015,05,04,15,49,13.40
2015,05,04,15,50,13.30
2015,05,04,15,51,13.20
2015,05,04,15,52,13.10
2015,05,04,15,53,13.10
2015,05,04,15,54,13.00
2015,05,04,15,55,13.00
2015,05,04,15,56,13.00
2015,05,04,15,57,13.10
2015,05,04,15,58,13.20
2015,05,04,15,59,13.30
2015,05,04,16,00,13.30
2015,05,04,16,01,13.30
2015,05,04,16,02,13.30
2015,05,04,16,03,13.30
2015,05,04,16,04,13.40
2015,05,04,16,05,13.40
2015,05,04,16,06,13.40
2015,05,04,16,07,13.30
2015,05,04,16,08,13.40
2015,05,04,16,09,13.50
2015,05,04,16,10,13.60
2015,05,04,16,11,13.60
2015,05,04,16,12,13.70
2015,05,04,16,13,13.80
2015,05,04,16,14,13.90
2015,05,04,16,15,14.00
2015,05,04,16,16,14.00
2015,05,04,16,17,14.10
2015,05,04,16,18,14.00
2015,05,04,16,19,14.00
2015,05,04,16,20,13.90
2015,05,04,16,21,13.90
2015,05,04,16,22,13.90
2015,05,04,16,23,13.80
2015,05,04,16,24,13.80
2015,05,04,16,25,13.60
2015,05,04,16,26,13.50
2015,05,04,16,27,13.30
2015,05,04,16,28,13.20
2015,05,04,16,29,13.00
2015,05,04,16,30,12.90
2015,05,04,16,31,12.80
2015,05,04,16,32,12.80
2015,05,04,16,33,12.70
2015,05,04,16,34,12.60
2015,05,04,16,35,12.60
2015,05,04,16,36,12.60
2015,05,04,16,37,12.50
2015,05,04,16,38,12.50
2015,05,04,16,39,12.40
2015,05,04,16,40,12.50
2015,05,04,16,41,12.60
2015,05,04,16,42,12.70
2015,05,04,16,43,12.70
2015,05,04,16,44,12.80
2015,05,04,16,45,12.80
2015,05,04,16,46,12.70
2015,05,04,16,47,12.80
2015,05,04,16,48,12.80
2015,05,04,16,49,13.00
2015,05,04,16,50,13.10
2015,05,04,16,51,13.10
2015,05,04,16,52,13.10
2015,05,04,16,53,13.00
2015,05,04,16,54,12.90
2015,05,04,16,55,12.80
2015,05,04,16,56,12.70
2015,05,04,16,57,12.60
2015,05,04,16,58,12.60
2015,05,04,16,59,12.50
2015,05,04,17,00,12.40
2015,05,04,17,01,12.40
2015,05,04,17,02,12.40
2015,05,04,17,03,12.40
2015,05,04,17,04,12.50
2015,05,04,17,05,12.50
2015,05,04,17,06,12.50
2015,05,04,17,07,12.50
2015,05,04,17,08,12.40
2015,05,04,17,09,12.40
2015,05,04,17,10,12.40
2015,05,04,17,11,12.30
2015,05,04,17,12,12.30
2015,05,04,17,13,12.20
2015,05,04,17,14,12.10
2015,05,04,17,15,12.10
2015,05,04,17,16,12.10
2015,05,04,17,17,12.10
2015,05,04,17,18,12.10
2015,05,04,17,19,12.10
2015,05,04,17,20,12.00
2015,05,04,17,21,11.90
2015,05,04,17,22,11.90
2015,05,04,17,23,11.90
2015,05,04,17,24,11.80
2015,05,04,17,25,11.70
2015,05,04,17,26,11.70
2015,05,04,17,27,11.70
2015,05,04,17,28,11.60
2015,05,04,17,29,11.60
2015,05,04,17,30,11.60
2015,05,04,17,31,11.60
2015,05,04,17,32,11.60
2015,05,04,17,33,11.60
2015,05,04,17,34,11.70
2015,05,04,17,35,11.70
2015,05,04,17,36,11.70
2015,05,04,17,37,11.70
2015,05,04,17,38,11.80
2015,05,04,17,39,11.80